Theta_e
320 325 325 324 321 322 323 322 324 324 324 325 324 323 327 329 329 331 335 347 347 347 348 348 346 345 346 344 343 341 340 342 345 347 345 344 342 339 337 335 334 334 333
323 324 319 320 319 320 322 322 322 322 323 324 323 324 327 329 330 332 334 338 345 345 346 347 347 346 346 344 341 340 339 343 344 345 343 342 340 337 335 334 333 333 332
322 321 319 319 320 320 320 321 321 322 322 323 323 323 328 329 330 332 335 336 339 345 344 346 347 346 345 344 341 339 341 343 345 343 341 339 338 336 334 334 333 332 331
323 320 319 320 320 319 319 319 319 319 320 320 321 322 326 328 330 332 334 335 334 338 344 344 345 344 345 341 341 342 343 345 343 341 340 338 335 336 334 333 332 331 330
322 320 320 320 320 318 317 318 317 319 318 319 321 322 324 325 330 333 334 333 336 336 339 344 343 343 341 340 342 343 345 344 342 340 339 337 335 334 333 332 331 330 330
323 321 320 320 320 317 316 317 316 319 319 319 324 323 323 323 329 330 333 335 337 335 337 338 339 338 338 340 342 344 345 343 340 338 337 336 336 334 333 332 331 330 329
323 321 320 320 319 317 316 317 317 318 317 319 317 318 319 323 326 331 333 334 334 335 336 336 336 335 337 340 341 343 344 342 339 337 336 335 335 333 332 332 331 330 329
326 323 321 320 319 317 317 318 318 316 317 319 316 318 314 319 326 330 332 332 332 334 333 333 333 333 333 335 337 340 342 341 340 336 335 334 335 333 332 331 330 329 328
327 324 322 320 319 318 317 317 318 317 316 318 319 320 314 312 319 328 328 330 331 332 332 331 332 332 333 333 335 338 341 340 338 336 334 334 333 332 331 329 329 328 328
324 324 322 321 320 318 317 318 320 319 319 317 320 324 323 322 317 318 327 328 330 330 330 331 331 332 332 333 336 337 337 338 338 335 333 333 332 331 330 329 328 328 328
325 324 323 321 319 318 318 321 319 319 319 319 320 321 321 320 322 322 318 323 327 329 330 330 330 331 333 333 333 333 334 334 334 333 334 333 332 331 330 329 329 328 327
323 322 323 320 318 318 319 319 319 320 319 321 323 324 322 319 320 322 321 321 321 325 328 329 330 331 331 332 335 333 331 329 328 329 331 332 333 331 330 329 328 327 327
317 318 320 321 319 319 321 321 320 323 320 321 321 321 321 324 325 325 323 320 320 323 324 327 329 330 332 332 333 333 331 326 325 324 326 328 330 330 331 331 329 328 326
317 319 321 321 322 322 323 321 323 323 322 321 322 322 324 326 327 326 323 320 317 319 321 323 328 330 331 330 331 331 328 324 323 322 322 323 325 327 328 328 329 328 328
320 321 321 321 322 323 322 323 324 323 324 325 326 325 325 327 327 325 325 323 319 315 316 322 323 328 330 329 330 327 326 325 324 321 320 320 321 322 323 324 324 324 324
320 321 321 321 322 322 322 324 323 322 326 327 327 326 326 324 325 325 324 324 323 320 316 322 324 327 328 328 330 325 324 325 324 320 320 320 318 319 320 320 320 321 321
320 322 322 323 322 322 323 323 321 323 325 326 327 326 324 325 324 324 324 324 323 322 319 323 326 328 326 325 326 325 326 324 321 319 320 318 316 316 316 316 317 318 318
321 322 324 324 324 322 323 324 323 324 324 324 325 326 325 326 324 325 324 324 323 324 322 319 323 325 325 326 325 325 326 324 320 320 318 317 315 314 313 313 312 313 313
322 324 325 324 325 324 323 323 323 322 323 324 325 326 326 326 324 324 324 323 325 325 324 322 321 323 322 325 322 321 319 317 319 321 316 315 314 314 313 311 310 310 309
323 324 325 326 326 325 325 324 323 321 320 323 326 326 326 326 325 324 324 324 324 323 323 322 321 319 318 317 318 317 315 316 315 315 315 313 313 313 312 311 311 312 309
323 324 325 326 326 326 327 326 325 325 324 322 322 325 325 325 322 323 325 324 324 321 322 318 316 315 314 312 310 311 311 311 313 314 309 309 308 308 309 310 313 314 310
320 322 323 324 324 327 309 313 322 325 325 324 323 325 324 321 319 316 318 318 320 320 317 316 314 313 312 313 313 311 311 310 310 312 309 310 308 307 307 306 307 305 305
316 317 318 318 317 319 306 309 315 326 325 324 324 324 326 327 322 325 313 313 312 312 315 317 314 313 313 314 314 311 311 311 310 313 312 310 310 309 310 310 306 304 302
315 313 313 313 314 316 305 307 311 327 325 324 323 323 324 324 324 319 317 314 315 317 317 320 316 315 315 316 316 315 313 312 314 313 313 311 308 309 311 302 304 305 304
313 312 312 311 311 310 303 305 317 323 322 320 319 318 319 318 306 304 315 313 308 305 302 303 308 306 304 305 311 318 314 312 307 307 306 309 304 303 302 303 303 303 301
314 313 311 311 307 306 302 306 315 320 317 314 313 315 307 311 300 301 313 312 308 307 303 302 299 297 297 299 302 307 310 303 300 300 306 303 302 301 300 302 301 301 301
Wind_Speed
4 3 3 3 3 3 3 4 4 3 5 5 5 6 6 6 6 3 3 15 15 19 24 27 26 26 25 24 24 21 19 18 19 19 19 16 18 18 17 17 16 16 16
4 3 4 4 4 3 3 4 4 4 4 3 4 5 5 5 6 6 4 5 17 23 23 26 28 26 27 25 23 21 20 20 21 19 19 17 17 18 18 17 17 17 17
5 5 4 4 5 3 4 4 3 3 4 3 5 4 4 6 5 6 4 3 7 18 21 23 25 27 29 29 25 22 22 21 21 19 19 19 16 16 18 18 18 17 17
6 5 4 4 4 3 4 3 4 3 3 4 4 3 4 5 5 5 4 4 3 5 15 21 23 26 28 26 27 26 25 23 20 19 20 20 18 18 17 17 17 17 16
6 5 4 4 4 3 4 4 2 3 3 3 4 3 4 3 4 3 5 5 4 6 6 18 23 22 30 27 25 28 26 22 21 19 20 20 19 20 18 16 17 16 15
6 5 4 5 3 3 3 3 3 3 2 3 3 4 3 3 3 4 5 4 6 6 7 10 11 14 24 26 26 27 25 24 21 20 18 19 18 19 18 18 16 15 14
6 5 3 4 3 4 5 4 3 4 3 3 3 1 2 2 4 5 5 5 6 6 8 8 8 10 11 21 23 27 26 23 20 20 17 17 17 19 18 18 16 14 12
6 5 4 4 4 3 5 5 4 3 2 4 4 3 3 3 3 4 5 5 8 7 7 11 12 9 8 7 15 24 23 22 20 19 17 15 16 18 17 16 15 13 11
4 5 4 4 4 3 4 4 5 6 4 1 2 4 3 3 4 2 5 6 9 7 7 9 11 11 9 6 11 16 21 20 18 18 18 16 17 18 17 15 15 13 10
2 2 4 4 4 2 4 5 5 4 4 4 1 1 2 5 4 5 6 6 7 9 10 7 9 10 8 6 10 11 16 19 20 19 18 17 17 17 17 15 14 12 11
0 2 3 3 3 1 3 4 4 5 2 4 4 2 2 4 3 3 8 8 6 5 7 7 8 8 8 7 6 7 13 14 16 15 15 15 16 16 15 14 13 12 10
2 3 4 3 2 2 4 3 3 5 3 4 3 4 4 4 4 6 7 9 9 5 6 7 8 8 6 6 8 12 13 12 11 11 11 11 12 13 13 12 11 10 9
1 3 3 3 2 2 4 4 3 4 5 4 5 3 2 5 10 10 6 4 5 4 4 5 4 6 6 4 6 9 12 12 11 10 10 11 10 11 10 9 9 9 9
3 3 3 3 1 3 5 5 4 3 5 4 6 5 4 5 9 13 7 9 8 3 4 4 3 5 6 4 6 11 8 12 11 11 9 8 8 8 8 7 8 9 8
2 3 3 3 2 3 5 6 4 6 7 5 6 7 6 5 6 6 10 9 8 7 4 3 3 4 6 5 6 5 5 10 10 9 9 8 7 7 7 8 8 8 9
2 3 4 4 4 5 5 6 6 5 9 6 6 9 7 6 8 7 7 6 6 7 4 2 2 5 6 5 7 4 5 7 7 8 8 7 8 8 9 8 8 10 11
4 4 5 5 5 6 6 7 6 7 10 8 8 9 9 9 8 7 7 8 8 5 7 4 3 3 4 6 4 3 3 4 4 6 7 8 9 10 8 10 10 11 10
4 5 5 5 6 6 7 8 8 10 10 8 7 9 10 8 9 7 7 9 8 5 7 10 3 2 3 4 5 6 4 3 4 7 10 9 10 10 10 11 12 13 11
6 6 5 5 6 7 8 6 8 8 10 8 6 9 9 11 9 8 7 8 7 7 7 6 3 2 2 2 2 1 2 3 2 5 6 8 9 10 13 13 12 13 12
6 6 5 6 6 6 7 7 7 7 6 7 6 8 9 10 11 10 9 7 7 7 6 4 3 2 2 2 2 3 3 1 2 2 4 5 8 10 10 11 13 15 16
5 5 6 6 6 6 6 8 7 7 6 7 6 7 6 7 10 9 8 7 7 5 5 3 2 2 2 2 3 2 2 1 2 3 1 2 2 4 6 9 14 15 11
4 5 6 6 6 4 11 10 9 6 6 7 8 6 9 12 12 12 9 6 5 7 5 4 3 3 3 3 3 3 3 2 2 1 1 3 3 4 4 4 6 8 10
5 6 6 6 6 6 13 14 12 5 4 6 7 8 9 7 9 8 6 8 8 10 8 6 6 5 4 6 5 3 3 3 2 2 2 2 2 4 4 4 7 8 8
6 5 6 6 6 4 12 15 13 10 6 5 6 7 8 10 8 7 6 5 3 4 6 5 7 7 5 7 6 5 5 3 1 2 3 2 5 4 4 4 8 8 9
4 4 5 6 7 4 8 12 10 7 7 6 5 5 7 8 9 11 6 6 6 4 3 5 9 8 5 4 5 5 4 4 2 2 4 4 1 3 2 2 3 3 4
6 5 5 5 8 6 7 10 8 4 5 4 3 4 9 9 12 10 8 7 6 3 3 2 3 6 6 7 10 6 5 4 3 2 2 2 2 3 4 2 3 4 5
Wind_Direction
228 224 249 253 248 235 223 214 203 193 204 199 213 215 232 220 225 222 216 216 197 192 177 162 169 167 170 170 163 161 166 168 157 142 132 134 125 127 125 120 122 119 113
211 222 237 240 245 212 220 206 201 197 211 211 229 235 241 231 227 218 214 223 198 183 185 177 176 176 173 159 155 159 177 172 151 134 132 132 133 131 126 126 122 118 114
206 217 227 234 238 220 221 215 210 197 214 217 234 232 217 231 225 202 196 199 195 186 180 186 188 190 168 157 160 171 180 156 141 140 136 131 131 131 125 128 124 120 120
217 219 221 233 232 216 203 197 179 201 215 210 233 205 206 213 209 175 148 139 169 163 173 178 170 161 159 154 169 179 169 148 142 141 137 128 139 128 131 129 126 121 124
228 219 227 233 223 212 203 198 167 164 189 223 231 190 204 177 199 140 137 134 137 134 154 169 160 153 146 165 177 170 153 142 145 145 136 137 140 133 134 132 126 129 126
226 219 230 229 195 192 189 166 161 187 185 211 220 175 195 158 200 139 147 139 114 126 139 151 149 143 153 170 173 160 150 146 143 142 137 136 140 136 141 133 132 132 127
231 221 206 221 187 182 193 172 158 182 226 162 104 126 103 116 161 145 154 124 117 103 123 140 138 148 164 175 173 160 152 138 143 138 140 135 142 146 138 135 138 137 136
224 208 205 213 187 164 179 174 152 121 182 185 145 145 107 27 25 127 114 135 114 113 124 120 126 125 147 168 169 148 134 138 141 143 134 144 147 142 138 141 141 144 146
178 188 196 199 172 173 188 178 166 158 157 110 167 146 129 178 134 140 129 137 123 118 117 121 118 126 118 122 130 146 136 141 141 144 146 157 150 143 147 151 147 150 156
176 165 163 169 165 180 190 184 174 161 141 155 117 18 182 156 167 154 133 122 121 120 130 125 129 136 131 128 135 153 136 139 149 153 158 157 153 153 155 156 152 163 173
69 146 142 160 146 151 164 179 155 149 139 133 148 150 80 52 109 152 126 131 109 110 120 130 136 134 138 122 131 165 129 137 144 156 160 159 160 161 162 161 166 175 183
37 118 118 138 147 143 145 189 139 127 132 128 139 163 163 154 149 98 128 134 132 117 117 122 133 131 113 134 150 158 134 129 141 152 163 157 169 167 170 170 178 184 193
81 119 105 106 133 122 139 160 138 131 153 150 152 163 111 132 121 111 124 103 114 113 107 83 93 123 129 135 133 143 130 141 157 160 164 173 179 175 176 179 189 204 207
125 135 114 112 65 88 84 96 102 99 98 107 131 95 106 127 132 137 129 130 109 74 70 94 59 118 119 128 139 136 152 158 168 173 170 176 181 179 181 187 213 219 214
137 131 132 146 152 112 103 104 98 92 88 98 91 90 91 87 93 105 132 146 138 139 117 103 113 125 123 135 144 134 162 174 173 170 172 177 188 192 194 202 220 225 219
120 137 130 148 134 107 107 100 87 80 100 100 111 113 101 93 95 103 111 113 120 127 115 115 96 126 118 123 150 153 176 159 189 180 181 180 196 205 211 210 223 233 227
143 141 140 133 128 118 119 99 86 91 105 102 116 117 108 109 106 99 101 110 110 114 122 94 91 100 90 128 147 167 173 184 203 190 191 199 205 213 217 224 231 236 234
137 136 126 117 113 114 109 115 111 116 118 114 107 122 119 109 101 106 108 108 102 116 122 117 94 99 109 164 179 178 183 186 209 218 213 214 220 222 229 234 234 235 234
135 126 125 124 116 121 114 114 113 112 130 133 127 132 128 124 119 115 106 103 121 112 106 120 119 100 106 150 150 145 177 233 223 238 232 232 242 238 236 238 241 243 237
131 130 132 129 120 119 121 114 116 111 107 117 111 126 141 139 135 127 117 114 111 107 118 121 116 122 147 134 125 155 229 129 271 241 232 225 233 242 250 253 253 250 242
129 137 131 128 132 131 132 132 128 124 124 116 108 121 111 118 117 116 127 125 126 134 148 141 107 115 151 151 187 189 162 80 282 237 263 261 255 266 260 246 257 264 268
114 108 120 129 128 132 138 118 123 123 128 129 115 107 118 118 112 128 127 147 158 150 156 148 153 177 193 184 163 176 135 98 349 351 150 301 195 273 266 253 276 300 285
111 119 124 124 107 121 134 121 121 135 110 119 116 131 136 144 145 163 171 199 202 201 182 151 170 183 172 199 158 157 159 172 191 304 140 284 8 360 334 338 338 319 299
129 128 126 116 121 131 145 148 151 156 144 141 152 148 141 162 182 159 178 206 205 180 181 199 188 185 201 171 180 170 162 150 60 21 49 59 12 355 0 18 33 23 7
121 127 130 126 122 124 166 156 137 131 134 149 156 163 148 162 182 171 159 140 107 96 40 33 149 152 160 109 124 117 99 94 46 347 353 71 315 271 237 310 290 302 321
146 139 138 134 129 126 158 158 135 128 130 131 131 158 158 153 163 173 146 146 127 163 147 86 46 43 60 67 63 71 130 120 130 50 309 85 13 350 342 270 313 340 354